Frisco, NC

6:55 AM EST on February 22, 2017 (GMT -0500)
Mitchell

Weather History for KHSE - August, 2013

Change the Weather History Date:

Wednesday, August 14, 2013

  Actual Average Record
Temperature  
Mean Temperature 77 °F 79 °F  
Max Temperature 82 °F 84 °F 90 °F (1965)
Min Temperature 72 °F 73 °F 57 °F (1964)
Degree Days  
Heating Degree Days 0 0  
Month to date heating degree days 0 0  
Since 1 June heating degree days 0 3  
Since 1 July heating degree days 0 0  
Cooling Degree Days 12 14  
Month to date cooling degree days 229 196  
Year to date cooling degree days 1300 1084  
Since 1 June cooling degree days 1138 941  
Growing Degree Days 28 (Base 50)    
Moisture  
Dew Point 69 °F    
Average Humidity 72    
Maximum Humidity 91    
Minimum Humidity 53    
Precipitation  
Precipitation 0.76 in 0.21 in 1.50 in (2001)
Month to date precipitation 2.08 2.90  
Year to date precipitation 29.51 33.16  
Snow  
Snow 0.00 in - - ()
Month to date snowfall 0.0  
Since 1 July snowfall 0.0  
Snow Depth 0.00 in    
Sea Level Pressure  
Sea Level Pressure 29.89 in    
Wind  
Wind Speed 10 mph (NNW)    
Max Wind Speed 20 mph    
Max Gust Speed 29 mph    
Visibility 8 miles    
Events Rain    
T = Trace of Precipitation, MM = Missing Value Source: NWS Daily Summary

Daily Weather History Graph

Daily Weather History Graph

Search for Another Location

Airport or City:

Trip Planner

Search our weather history database for the weather conditions in past years. The results will help you decide how hot, cold, wet, or windy it might be!

Date:

Astronomy

Aug. 14, 2013 Rise Set
Actual Time 6:21 AM EDT 7:52 PM EDT
Civil Twilight 5:54 AM EDT 8:18 PM EDT
Nautical Twilight 5:22 AM EDT 8:51 PM EDT
Astronomical Twilight 4:48 AM EDT 9:25 PM EDT
Moon 1:59 PM EDT (8/14) No Moon Set
Length of Visible Light 14h 24m
Length of Day
13h 30m
First Quarter, 52% of the Moon is Illuminated
Aug 14
First Quarter
Aug 20
Full
Aug 28
Last Quarter
Sep 5
New
Sep 12
First Quarter

Hourly Weather History & Observations

Time (EDT) Temp. Heat Index Dew Point Humidity Pressure Visibility Wind Dir Wind Speed Gust Speed Precip Events Conditions
12:07 AM 80.6 °F 86.2 °F 75.2 °F 84% 29.81 in 7.0 mi SSW 11.5 mph - N/A   Overcast
12:15 AM 80.6 °F 86.2 °F 75.2 °F 84% 29.81 in 7.0 mi SSW 9.2 mph - N/A   Overcast
12:51 AM 82.0 °F 91.0 °F 78.1 °F 88% 29.80 in 6.0 mi WSW 12.7 mph - N/A   Overcast
1:50 AM 81.0 °F 87.9 °F 77.0 °F 88% 29.79 in 2.5 mi WSW 15.0 mph 24.2 mph 0.02 in Rain Heavy Rain
2:05 AM 80.6 °F 87.1 °F 77.0 °F 89% 29.78 in 5.0 mi WSW 13.8 mph 20.7 mph 0.04 in Rain Light Rain
2:34 AM 80.6 °F 85.4 °F 73.4 °F 79% 29.80 in 2.5 mi WNW 13.8 mph 27.6 mph 0.05 in Rain Heavy Rain
2:51 AM 78.1 °F - 73.9 °F 87% 29.79 in 1.0 mi WNW 9.2 mph 18.4 mph 0.24 in Rain Heavy Rain
3:03 AM 77.0 °F - 73.4 °F 89% 29.79 in 1.2 mi West 8.1 mph 18.4 mph 0.21 in Rain Heavy Rain
3:14 AM 78.8 °F - 73.4 °F 83% 29.80 in 1.8 mi West 16.1 mph 26.5 mph 0.34 in Rain Heavy Rain
3:27 AM 77.0 °F - 73.4 °F 89% 29.79 in 3.0 mi West 11.5 mph 24.2 mph 0.44 in Rain Light Rain
3:51 AM 77.0 °F - 73.9 °F 90% 29.79 in 3.0 mi West 8.1 mph 16.1 mph 0.47 in Rain Rain
4:51 AM 78.1 °F - 73.9 °F 87% 29.79 in 5.0 mi WSW 10.4 mph - 0.03 in   Mostly Cloudy
5:51 AM 79.0 °F - 75.0 °F 88% 29.81 in 6.0 mi West 8.1 mph - N/A   Mostly Cloudy
6:01 AM 78.8 °F - 75.2 °F 89% 29.82 in 8.0 mi West 8.1 mph - N/A   Mostly Cloudy
6:42 AM 80.6 °F 85.4 °F 73.4 °F 79% 29.85 in 10.0 mi West 11.5 mph 18.4 mph N/A   Mostly Cloudy
6:51 AM 80.1 °F 84.5 °F 73.9 °F 81% 29.84 in 10.0 mi WNW 9.2 mph - N/A   Mostly Cloudy
7:51 AM 80.1 °F 84.5 °F 73.9 °F 81% 29.85 in 10.0 mi NW 8.1 mph - N/A   Mostly Cloudy
8:51 AM 81.0 °F 86.7 °F 75.0 °F 82% 29.88 in 10.0 mi Variable 5.8 mph - N/A   Overcast
9:00 AM 80.6 °F 85.4 °F 73.4 °F 79% 29.88 in 10.0 mi NE 9.2 mph - N/A   Overcast
9:12 AM 80.6 °F 85.4 °F 73.4 °F 79% 29.88 in 10.0 mi NE 8.1 mph - N/A   Overcast
9:51 AM 80.1 °F 83.6 °F 71.1 °F 74% 29.90 in 10.0 mi NNE 8.1 mph 19.6 mph N/A   Overcast
10:16 AM 80.6 °F 83.9 °F 69.8 °F 70% 29.92 in 10.0 mi NE 8.1 mph 17.3 mph N/A   Overcast
10:51 AM 80.1 °F 82.9 °F 69.1 °F 69% 29.92 in 10.0 mi NE 10.4 mph 18.4 mph N/A   Mostly Cloudy
11:03 AM 78.8 °F - 69.8 °F 74% 29.92 in 10.0 mi NNE 10.4 mph 19.6 mph N/A   Mostly Cloudy
11:51 AM 77.0 °F - 68.0 °F 74% 29.94 in 10.0 mi NE 10.4 mph 24.2 mph N/A   Overcast
12:08 PM 77.0 °F - 64.4 °F 65% 29.93 in 10.0 mi NNE 11.5 mph 24.2 mph N/A   Scattered Clouds
12:51 PM 78.1 °F - 60.1 °F 54% 29.95 in 10.0 mi NNE 11.5 mph 25.3 mph N/A   Scattered Clouds
1:51 PM 79.0 °F - 64.9 °F 62% 29.95 in 10.0 mi NNE 15.0 mph 25.3 mph N/A   Clear
2:51 PM 75.9 °F - 64.0 °F 67% 29.95 in 10.0 mi NNE 11.5 mph 21.9 mph N/A   Partly Cloudy
3:51 PM 77.0 °F - 61.0 °F 58% 29.97 in 10.0 mi NNE 10.4 mph 21.9 mph N/A   Overcast
4:51 PM 75.0 °F - 60.1 °F 60% 29.97 in 10.0 mi NNE 8.1 mph 18.4 mph N/A   Clear
5:51 PM 73.9 °F - 61.0 °F 64% 29.98 in 10.0 mi NE 9.2 mph 20.7 mph 0.00 in   Partly Cloudy
6:51 PM 73.0 °F - 59.0 °F 61% 29.98 in 10.0 mi NE 9.2 mph - N/A   Clear
7:51 PM 73.0 °F - 57.9 °F 59% 30.01 in 10.0 mi NNE 9.2 mph 16.1 mph N/A   Overcast
8:51 PM 73.0 °F - 57.0 °F 57% 30.03 in 10.0 mi NE 10.4 mph 18.4 mph N/A   Overcast
9:51 PM 73.0 °F - 55.9 °F 55% 30.05 in 10.0 mi NNE 9.2 mph 17.3 mph N/A   Overcast
10:51 PM 73.0 °F - 57.9 °F 59% 30.05 in 10.0 mi NE 9.2 mph - 0.00 in Rain Light Rain
11:51 PM 73.0 °F - 57.0 °F 57% 30.04 in 10.0 mi NNE 11.5 mph 21.9 mph 0.00 in   Clear